Weather History for KRHP - March, 2014

Change the Weather History Date:

Wednesday, March 12, 2014

  Actual Average (KTYS) Record (KTYS)
Temperature  
Mean Temperature 50 °F 49 °F  
Max Temperature 65 °F 60 °F 81 °F (1911)
Min Temperature 34 °F 38 °F 18 °F (1969)
Degree Days  
Heating Degree Days 16 16  
Month to date heating degree days 209  
Since 1 July heating degree days 3105  
Cooling Degree Days 0 0  
Month to date cooling degree days 0  
Year to date cooling degree days 0  
Moisture  
Dew Point 44 °F    
Average Humidity 80    
Maximum Humidity 100    
Minimum Humidity 56    
Precipitation  
Precipitation 0.15 in 0.13 in 3.25 in (1963)
Month to date precipitation 1.65  
Year to date precipitation 10.23  
Snow  
Snow 0.00 in 0.00 in - ()
Month to date snowfall 0.4  
Since 1 July snowfall 5.5  
Snow Depth -    
Sea Level Pressure  
Sea Level Pressure 29.67 in    
Wind  
Wind Speed 5 mph (West)    
Max Wind Speed 24 mph    
Max Gust Speed 33 mph    
Visibility 8 miles    
Events Rain    
T = Trace of Precipitation, MM = Missing Value Source: NWS Daily Summary

Daily Weather History Graph

Daily Weather History Graph

Search for Another Location

Airport or City:

Trip Planner

Search our weather history database for the weather conditions in past years. The results will help you decide how hot, cold, wet, or windy it might be!

Date:

Astronomy

Mar. 12, 2014 Rise Set
Actual Time 7:50 AM EDT 7:40 PM EDT
Civil Twilight 7:24 AM EDT 8:05 PM EDT
Nautical Twilight 6:55 AM EDT 8:35 PM EDT
Astronomical Twilight 6:26 AM EDT 9:04 PM EDT
Moon 4:16 PM EDT (3/12) 5:14 AM EDT (3/12)
Length of Visible Light 12h 40m
Length of Day
11h 50m
Waxing Gibbous, 85% of the Moon is Illuminated
Mar 12
Waxing Gibbous
Mar 16
Full
Mar 23
Last Quarter
Mar 30
New
Apr 7
First Quarter

Hourly Weather History & Observations

Time (EDT) Temp. Windchill Dew Point Humidity Pressure Visibility Wind Dir Wind Speed Gust Speed Precip Events Conditions
12:15 AM 52.9 °F - 47.3 °F 81% 29.73 in 10.0 mi Calm Calm - N/A   Overcast
12:35 AM 53.6 °F - 47.3 °F 79% 29.73 in 10.0 mi Calm Calm - N/A   Overcast
12:55 AM 53.1 °F - 48.2 °F 84% 29.72 in 10.0 mi Calm Calm - N/A   Overcast
1:15 AM 53.1 °F - 48.6 °F 85% 29.71 in 10.0 mi Calm Calm - N/A   Overcast
1:35 AM 53.4 °F - 48.2 °F 82% 29.70 in 10.0 mi Calm Calm - N/A   Overcast
1:55 AM 53.1 °F - 48.2 °F 84% 29.69 in 10.0 mi Calm Calm - N/A   Mostly Cloudy
2:15 AM 52.7 °F - 47.3 °F 82% 29.69 in 10.0 mi Calm Calm - N/A   Scattered Clouds
2:35 AM 52.0 °F - 48.2 °F 87% 29.67 in 10.0 mi Calm Calm - N/A   Overcast
2:55 AM 52.3 °F - 48.4 °F 86% 29.67 in 10.0 mi Calm Calm - N/A   Overcast
3:15 AM 52.7 °F - 48.6 °F 86% 29.66 in 10.0 mi Calm Calm - N/A Rain Rain
3:35 AM 52.7 °F - 49.1 °F 88% 29.65 in 10.0 mi Calm Calm - N/A   Drizzle
3:55 AM 53.1 °F - 49.6 °F 88% 29.65 in 10.0 mi Calm Calm - N/A   Drizzle
4:15 AM 56.7 °F - 53.2 °F 88% 29.64 in 7.0 mi West 9.2 mph - N/A   Drizzle
4:35 AM 55.4 °F - 52.7 °F 91% 29.63 in 7.0 mi Calm Calm - 0.01 in   Drizzle
4:55 AM 54.1 °F - 52.7 °F 95% 29.62 in 5.0 mi Calm Calm - 0.01 in Rain Light Rain
5:15 AM 53.8 °F - 53.1 °F 97% 29.60 in 4.0 mi Calm Calm - 0.01 in   Drizzle
5:35 AM 53.6 °F - 52.9 °F 97% 29.60 in 3.0 mi Calm Calm - 0.02 in   Drizzle
5:55 AM 53.6 °F - 53.2 °F 99% 29.60 in 2.5 mi Calm Calm - 0.05 in Rain Rain
6:15 AM 53.8 °F - 53.4 °F 99% 29.60 in 2.5 mi ESE 3.5 mph - 0.01 in   Light Drizzle
6:35 AM 53.6 °F - 53.2 °F 99% 29.60 in 2.0 mi Calm Calm - 0.01 in   Drizzle
6:55 AM 53.6 °F - 53.6 °F 100% 29.59 in 1.5 mi Calm Calm - 0.01 in   Drizzle
7:15 AM 53.6 °F - 53.6 °F 100% 29.58 in 1.0 mi Calm Calm - 0.01 in   Light Drizzle
7:35 AM 53.8 °F - 53.6 °F 99% 29.58 in 1.0 mi Calm Calm - 0.01 in   Overcast
7:55 AM 54.0 °F - 54.0 °F 100% 29.58 in 1.0 mi Calm Calm - 0.02 in Rain Light Rain
8:15 AM 54.1 °F - 54.1 °F 100% 29.57 in 1.0 mi Calm Calm - 0.02 in   Heavy Drizzle
8:35 AM 54.5 °F - 54.5 °F 100% 29.56 in 1.8 mi Calm Calm - 0.02 in   Overcast
8:55 AM 54.5 °F - 54.5 °F 100% 29.56 in 1.0 mi Calm Calm - 0.03 in   Heavy Drizzle
9:15 AM 55.6 °F - 55.6 °F 100% 29.56 in 3.0 mi WSW 4.6 mph - N/A Rain Light Rain
9:35 AM 57.2 °F - 55.9 °F 96% 29.56 in 2.0 mi West 9.2 mph - 0.01 in Rain Heavy Rain
9:55 AM 57.2 °F - 55.8 °F 95% 29.55 in 3.0 mi SW 11.5 mph 17.3 mph 0.03 in   Heavy Drizzle
10:15 AM 57.6 °F - 55.6 °F 93% 29.56 in 7.0 mi West 10.4 mph - N/A Rain Light Rain
10:35 AM 58.1 °F - 55.2 °F 90% 29.55 in 10.0 mi SW 5.8 mph - N/A   Overcast
10:55 AM 58.5 °F - 55.6 °F 90% 29.56 in 10.0 mi SW 9.2 mph - N/A   Overcast
11:15 AM 59.0 °F - 55.4 °F 88% 29.55 in 10.0 mi SW 11.5 mph 16.1 mph N/A   Overcast
11:35 AM 59.0 °F - 55.4 °F 88% 29.54 in 10.0 mi WSW 10.4 mph - N/A   Overcast
11:55 AM 59.9 °F - 55.2 °F 84% 29.54 in 10.0 mi WSW 16.1 mph 21.9 mph N/A   Overcast
12:15 PM 61.5 °F - 55.6 °F 81% 29.53 in 10.0 mi WSW 11.5 mph 18.4 mph N/A   Overcast
12:35 PM 63.0 °F - 55.9 °F 78% 29.52 in 10.0 mi WSW 18.4 mph 24.2 mph N/A   Overcast
12:55 PM 63.5 °F - 55.2 °F 74% 29.52 in 10.0 mi WSW 12.7 mph 21.9 mph N/A   Mostly Cloudy
1:15 PM 65.1 °F - 54.1 °F 68% 29.51 in 10.0 mi WSW 19.6 mph 32.2 mph N/A   Mostly Cloudy
1:35 PM 65.5 °F - 53.6 °F 65% 29.48 in 10.0 mi West 24.2 mph 32.2 mph N/A   Mostly Cloudy
1:55 PM 63.9 °F - 53.2 °F 68% 29.48 in 10.0 mi WSW 18.4 mph 29.9 mph N/A Rain Light Rain
2:15 PM 61.2 °F - 50.9 °F 69% 29.51 in 10.0 mi WNW 18.4 mph 28.8 mph N/A   Mostly Cloudy
2:35 PM 55.6 °F - 47.7 °F 75% 29.56 in 10.0 mi WNW 15.0 mph 28.8 mph N/A   Mostly Cloudy
2:55 PM 53.6 °F - 45.0 °F 73% 29.57 in 10.0 mi WNW 16.1 mph 33.4 mph N/A   Overcast
3:15 PM 52.9 °F - 43.7 °F 71% 29.58 in 10.0 mi West 18.4 mph 25.3 mph N/A   Overcast
3:35 PM 52.2 °F - 41.9 °F 68% 29.60 in 10.0 mi West 10.4 mph 25.3 mph N/A   Mostly Cloudy
3:55 PM 49.8 °F - 40.3 °F 70% 29.62 in 10.0 mi West 19.6 mph 25.3 mph N/A   Mostly Cloudy
4:15 PM 48.2 °F - 38.7 °F 70% 29.64 in 10.0 mi West 11.5 mph - N/A   Overcast
4:35 PM 45.7 °F 39.1 °F 35.4 °F 67% 29.67 in 10.0 mi WNW 15.0 mph 20.7 mph N/A   Overcast
4:55 PM 43.9 °F 40.5 °F 34.7 °F 70% 29.69 in 10.0 mi WNW 5.8 mph 17.3 mph N/A   Overcast
5:15 PM 43.0 °F 35.7 °F 34.7 °F 73% 29.71 in 10.0 mi WNW 15.0 mph - N/A   Overcast
5:35 PM 41.9 °F 35.9 °F 34.5 °F 75% 29.72 in 10.0 mi North 10.4 mph 16.1 mph N/A Rain Light Rain
5:55 PM 41.7 °F 35.6 °F 32.0 °F 68% 29.73 in 10.0 mi North 10.4 mph 19.6 mph N/A   Overcast
6:15 PM 41.0 °F 33.5 °F 32.0 °F 70% 29.74 in 10.0 mi North 13.8 mph 21.9 mph N/A   Overcast
6:35 PM 40.5 °F 33.6 °F 31.5 °F 70% 29.75 in 10.0 mi NNW 11.5 mph 19.6 mph N/A   Overcast
6:55 PM 39.6 °F 32.5 °F 31.5 °F 73% 29.77 in 10.0 mi West 11.5 mph 24.2 mph N/A Rain Light Rain
7:15 PM 40.1 °F 34.1 °F 30.0 °F 67% 29.78 in 10.0 mi NW 9.2 mph 16.1 mph N/A   Overcast
7:35 PM 39.7 °F 35.6 °F 29.3 °F 66% 29.79 in 10.0 mi NE 5.8 mph - N/A   Overcast
7:55 PM 39.6 °F 34.7 °F 30.2 °F 69% 29.80 in 10.0 mi West 6.9 mph - N/A   Light Drizzle
8:15 PM 39.2 °F 35.0 °F 28.6 °F 66% 29.81 in 10.0 mi WNW 5.8 mph - N/A   Overcast
8:35 PM 38.8 °F 33.8 °F 29.5 °F 69% 29.81 in 10.0 mi West 6.9 mph - N/A   Overcast
8:55 PM 37.8 °F 35.3 °F 30.4 °F 75% 29.83 in 10.0 mi NW 3.5 mph - N/A Rain Light Rain
9:15 PM 36.9 °F 32.2 °F 30.0 °F 76% 29.86 in 10.0 mi NNW 5.8 mph - N/A Rain Light Rain
9:35 PM 36.5 °F 31.0 °F 26.8 °F 68% 29.87 in 10.0 mi WNW 6.9 mph - N/A   Overcast
9:55 PM 36.5 °F 30.3 °F 25.2 °F 64% 29.88 in 10.0 mi NW 8.1 mph - N/A   Overcast
10:15 PM 35.8 °F 27.3 °F 23.0 °F 60% 29.88 in 10.0 mi WNW 12.7 mph 21.9 mph N/A   Overcast
10:35 PM 35.1 °F 26.4 °F 22.8 °F 61% 29.89 in 10.0 mi West 12.7 mph 20.7 mph N/A   Mostly Cloudy
10:55 PM 35.4 °F 26.8 °F 21.2 °F 56% 29.90 in 10.0 mi West 12.7 mph 24.2 mph N/A   Mostly Cloudy
11:15 PM 35.1 °F 27.4 °F 21.4 °F 57% 29.91 in 10.0 mi WNW 10.4 mph 25.3 mph N/A   Overcast
11:35 PM 34.7 °F 27.5 °F 22.5 °F 61% 29.92 in 10.0 mi WNW 9.2 mph 16.1 mph N/A   Overcast
11:55 PM 34.2 °F 28.2 °F 21.0 °F 59% 29.92 in 10.0 mi West 6.9 mph - N/A   Mostly Cloudy